Temperature
21 21 21 21 19 18 19 20 21 21 21 21 20 20 19 18 18 17 17 17 17 17 17 17 18 18 18 18 17 17 17 17 17 18 18 17 17 17 17 17 17 17 17 17 17 17 17 17 17
21 21 21 21 18 18 19 20 20 21 21 21 21 20 19 18 18 17 17 17 17 17 17 18 18 18 18 18 18 17 17 17 17 17 17 17 17 17 17 17 17 17 17 17 17 17 17 17 17
21 21 21 18 19 19 20 20 21 22 22 22 20 19 18 18 18 17 17 17 17 17 18 18 18 18 18 18 17 17 17 17 17 17 17 17 17 17 17 17 17 17 17 17 17 17 17 17 17
22 21 21 18 20 20 20 20 21 22 22 21 20 18 18 18 18 18 17 17 17 17 17 17 17 17 17 17 17 17 17 17 17 17 17 17 17 17 17 17 17 17 17 17 17 17 17 17 17
22 21 19 19 20 20 20 21 22 21 21 20 19 18 17 18 18 18 17 17 17 17 17 17 17 17 17 17 17 17 17 17 17 17 17 17 17 17 17 17 17 17 17 16 16 16 16 16 16
22 19 18 19 20 21 21 22 21 20 20 20 19 18 17 18 18 17 17 17 17 17 17 17 17 17 17 17 17 17 17 17 17 17 17 17 17 17 17 16 16 16 16 16 16 16 16 16 16
21 18 19 19 20 20 21 22 21 20 20 20 19 17 17 17 17 17 17 17 17 17 17 17 17 17 17 17 17 17 17 17 17 17 17 17 17 17 16 16 16 16 16 16 16 16 16 16 16
22 18 19 19 20 20 22 22 21 21 20 20 20 18 17 17 17 17 17 17 17 17 17 17 17 17 17 17 17 17 17 17 17 17 17 17 16 16 16 16 16 16 16 16 16 16 16 16 16
23 18 19 20 20 20 21 21 21 21 20 19 19 19 18 18 17 17 17 17 17 17 17 17 17 17 17 17 17 16 16 16 16 16 16 16 16 16 16 16 16 16 16 16 16 16 16 16 16
22 18 20 21 20 20 21 21 21 20 19 18 18 18 18 18 18 17 17 17 17 17 17 17 17 17 17 17 16 16 16 16 16 16 16 16 16 16 16 16 16 16 16 16 15 15 16 16 16
21 20 21 21 22 22 21 21 21 20 18 18 18 18 18 18 18 18 17 17 17 17 17 17 17 17 17 17 16 16 16 16 16 16 16 16 16 16 16 16 15 15 15 15 15 15 15 16 16
21 21 22 22 22 22 21 21 20 20 19 20 19 19 18 18 18 18 18 17 17 17 17 17 17 17 17 17 16 16 16 16 16 16 16 16 16 16 15 15 15 15 15 15 15 15 15 15 15
21 21 22 22 22 22 21 21 20 19 20 19 19 18 18 18 18 18 18 17 17 17 17 17 17 17 17 17 16 16 16 16 16 16 16 16 16 15 15 15 15 15 15 15 15 15 15 15 15
22 22 22 22 22 22 21 20 20 19 19 19 19 18 18 18 18 18 18 17 17 17 17 17 17 17 17 17 16 16 16 16 16 16 16 16 16 15 15 15 15 15 15 15 15 15 15 15 15
22 21 21 21 22 21 21 20 19 19 19 19 19 18 18 18 18 18 18 18 17 17 17 17 17 17 17 17 16 16 16 16 16 16 16 16 15 15 15 15 15 15 15 15 15 14 14 14 14
21 20 20 21 21 21 20 19 19 20 19 19 19 19 18 18 18 18 18 18 17 17 17 17 17 17 17 16 16 16 16 16 16 16 16 16 15 15 15 15 15 15 15 15 15 14 14 14 14
20 19 19 20 21 21 20 19 19 20 19 19 19 19 19 18 18 18 18 18 18 17 17 17 17 17 17 16 16 16 16 16 16 16 16 15 15 15 15 15 14 14 14 14 14 14 14 14 14
19 19 20 20 21 20 19 19 18 19 19 19 19 19 19 19 19 18 18 18 18 17 17 17 17 17 17 16 16 16 16 16 16 16 15 15 15 15 15 15 14 14 14 14 14 14 14 14 14
20 20 20 20 21 20 19 19 18 19 19 19 19 18 18 19 19 18 18 18 18 17 17 17 17 17 16 16 16 16 16 16 15 15 15 15 15 15 15 15 14 14 14 14 14 14 14 14 14
20 20 20 20 21 20 19 19 19 19 19 19 18 18 19 19 18 18 18 18 18 17 17 17 17 17 16 16 16 16 16 16 15 15 15 15 15 15 14 14 14 14 14 14 14 14 14 13 13
20 20 20 20 20 20 19 18 18 18 19 19 19 19 19 19 18 18 18 18 18 17 17 17 17 17 16 16 16 16 16 15 15 15 15 15 15 14 14 14 14 14 14 14 14 14 14 13 13
20 21 21 21 19 18 19 17 17 18 18 18 18 18 19 18 18 18 18 18 18 18 17 17 17 17 16 16 16 16 16 15 15 15 15 15 15 14 14 14 14 14 14 14 14 13 13 13 13
20 21 21 20 19 18 18 17 17 17 17 17 18 18 19 19 19 18 18 18 18 18 17 17 17 17 16 16 16 16 16 15 15 15 15 15 14 14 14 14 14 14 14 14 14 14 13 13 13
21 20 19 18 17 17 18 17 17 16 17 18 18 18 19 19 19 18 18 18 18 17 17 17 17 17 16 16 16 16 16 15 15 15 15 15 14 14 14 14 14 14 14 14 14 14 14 14 14
20 17 17 17 16 16 18 18 17 17 18 18 18 18 18 19 18 18 18 18 17 17 17 17 17 17 16 16 16 16 16 16 15 15 15 15 15 14 14 14 14 14 14 14 14 14 14 14 14
19 17 16 17 16 16 17 17 17 18 19 19 19 18 18 18 18 18 18 18 18 17 17 17 17 17 16 16 16 16 16 16 15 15 15 15 15 15 14 14 14 14 14 14 14 14 14 14 13
19 17 17 16 17 16 16 17 18 18 18 18 18 18 18 18 18 18 18 18 17 17 17 17 17 17 16 16 16 16 16 16 15 15 15 15 15 15 15 14 14 14 14 14 14 14 14 14 14
19 18 16 16 16 16 16 17 16 17 17 17 17 17 18 18 17 18 17 17 17 17 17 17 17 17 16 16 16 16 16 15 15 15 15 15 15 15 15 14 14 14 14 14 14 14 14 14 14
19 18 17 15 15 15 16 16 17 17 17 16 17 17 18 18 17 18 17 17 17 17 17 17 17 16 16 16 16 16 16 15 15 15 15 15 15 15 14 14 14 14 14 14 14 14 14 14 13
19 18 16 16 16 15 15 15 17 17 17 17 17 18 18 18 18 18 17 17 17 17 16 16 16 16 16 16 16 16 15 15 15 15 15 15 15 15 14 14 14 14 14 14 14 14 14 14 13
Wind_Speed
4 2 2 3 5 6 4 1 2 3 4 5 9 10 9 6 5 5 2 5 6 5 5 7 9 9 10 10 10 11 11 11 10 11 11 11 11 11 11 11 11 10 10 11 12 12 12 12 12
2 1 3 5 5 4 2 1 5 5 6 7 8 9 8 6 5 6 3 6 7 6 6 7 9 10 10 10 11 11 11 10 10 11 11 11 11 11 12 12 12 12 12 12 12 12 12 12 12
2 1 4 4 4 4 4 3 5 5 6 5 6 6 5 4 4 4 5 8 8 7 7 7 9 10 10 10 11 11 11 11 11 11 11 11 11 11 12 12 13 14 13 13 12 12 12 12 12
2 4 5 6 5 1 5 4 5 7 6 6 7 6 4 3 4 6 9 9 8 6 6 8 9 10 10 10 10 11 11 11 11 11 12 11 11 11 12 12 13 13 13 13 12 12 12 13 13
3 5 6 4 3 2 2 4 5 6 4 5 7 6 4 3 8 10 10 9 9 5 6 8 10 10 10 10 10 11 11 11 12 12 12 11 11 11 12 12 13 13 13 13 13 13 13 13 13
4 5 5 3 3 2 2 4 6 8 6 6 7 6 3 3 8 9 9 8 8 6 6 7 9 10 10 10 10 11 11 11 11 11 11 11 11 12 12 13 12 13 13 13 13 13 13 13 14
5 4 3 4 3 2 3 4 6 6 6 4 5 6 4 3 6 8 8 8 7 7 6 5 7 8 9 10 10 10 11 11 11 11 11 11 11 12 12 12 12 12 12 12 12 13 13 13 13
5 4 3 2 3 2 2 4 5 6 5 4 4 7 5 5 6 8 8 7 6 5 5 5 5 6 7 8 9 9 10 10 10 11 11 11 11 11 11 11 11 11 11 11 11 12 13 13 14
4 5 2 2 4 3 3 5 4 5 7 5 4 5 7 9 9 8 6 5 5 6 4 4 4 5 5 6 7 7 8 8 8 8 10 10 9 9 9 9 9 10 10 10 11 12 13 13 14
5 3 1 2 5 5 4 5 5 5 7 6 6 6 9 9 9 9 7 6 6 5 4 4 3 4 4 5 5 4 4 5 5 5 6 7 7 6 7 7 8 8 8 9 10 10 11 11 10
4 4 2 3 5 6 5 4 4 7 4 5 9 10 9 9 8 8 7 6 6 6 6 5 4 4 4 3 4 3 3 3 3 4 5 6 5 5 5 5 5 6 7 8 9 9 9 10 9
3 2 4 4 5 5 5 4 5 5 5 7 11 11 10 9 8 8 8 6 5 5 6 5 5 4 4 4 3 3 2 3 3 4 6 6 5 4 4 4 4 5 5 7 7 7 9 10 10
3 3 4 5 7 6 7 6 6 5 7 9 10 10 9 9 8 7 7 6 6 6 5 5 4 4 4 4 3 4 3 3 4 5 6 7 5 3 3 3 4 5 6 6 6 7 7 7 7
3 4 4 5 5 4 7 4 6 5 9 10 10 9 8 8 8 7 6 6 6 6 5 4 4 5 5 4 3 3 3 4 5 5 6 8 7 5 4 4 4 5 6 7 7 6 6 5 6
4 3 2 2 3 4 6 3 3 7 9 10 9 8 8 7 7 7 8 7 6 6 5 5 5 5 5 4 3 3 4 5 4 5 6 8 8 7 6 4 4 5 7 8 7 7 6 5 5
2 2 0 3 4 4 6 3 4 7 10 9 8 8 7 7 7 7 8 6 6 6 6 5 5 5 5 4 4 4 5 5 5 6 7 8 9 9 7 4 3 5 7 6 5 4 5 5 4
2 1 3 3 3 4 5 4 5 7 9 9 9 8 7 7 6 6 7 7 7 7 7 6 5 6 5 5 4 5 5 5 5 6 6 7 8 9 8 5 4 6 6 4 4 4 4 4 4
3 3 2 4 3 4 4 5 6 7 9 9 9 8 8 8 7 7 7 7 6 6 6 6 5 5 5 4 4 4 4 3 4 5 6 7 7 8 8 5 5 6 4 4 4 4 3 3 3
3 2 2 4 3 4 5 5 6 7 7 7 8 8 8 8 7 7 7 7 5 5 6 6 6 5 5 4 3 3 2 1 2 3 6 7 7 8 7 5 5 5 4 4 4 4 4 3 3
2 1 2 2 2 3 3 4 5 7 9 10 10 10 9 7 5 6 7 7 7 6 6 6 6 6 5 5 4 3 3 2 2 2 3 5 6 7 7 6 4 4 4 4 4 3 3 1 1
2 3 4 3 1 1 1 3 3 4 4 6 8 9 10 10 10 8 7 7 7 6 7 7 6 6 5 5 4 3 3 3 2 1 1 1 4 6 7 6 5 4 4 4 3 3 3 2 0
3 4 3 2 1 3 1 2 5 4 4 6 7 8 9 9 9 8 8 8 8 8 7 7 6 5 5 6 6 6 4 3 3 3 2 1 4 5 6 6 6 4 3 4 3 3 2 3 1
5 4 3 2 2 2 2 2 6 2 4 6 7 9 9 10 10 10 9 9 8 7 7 7 6 5 5 6 7 7 5 3 2 2 3 2 1 3 5 6 5 4 3 4 3 3 2 2 2
1 3 4 4 3 2 4 4 4 3 6 5 6 8 8 9 9 9 8 6 6 6 6 7 7 5 5 6 7 7 7 5 4 3 3 2 2 1 2 4 5 4 3 4 3 3 3 2 2
4 5 3 4 2 4 3 2 5 6 5 6 8 7 8 8 9 9 7 6 6 7 7 7 7 6 5 6 6 7 7 7 6 5 5 4 3 2 4 4 4 3 4 4 4 3 3 2 2
3 7 5 3 3 4 3 2 4 4 1 2 4 5 5 6 8 10 10 9 8 8 8 7 7 6 6 6 6 5 6 5 5 5 5 5 4 4 5 5 5 4 5 4 4 3 3 3 3
2 3 6 5 1 2 3 3 4 5 5 4 4 4 5 6 7 9 9 8 7 8 8 9 9 6 6 7 6 5 5 5 5 5 4 4 4 4 5 5 5 4 4 4 4 3 3 3 3
4 5 4 3 2 2 3 3 3 3 1 1 3 4 4 4 5 5 6 6 5 5 5 6 7 7 6 6 6 5 5 5 5 5 4 4 4 3 4 5 4 4 4 4 4 3 3 4 3
0 1 3 3 4 4 2 5 4 6 4 3 3 3 4 4 5 6 5 5 5 4 4 4 4 5 5 6 6 5 5 5 4 4 5 4 4 3 4 4 5 5 5 4 4 4 5 5 3
3 3 5 3 2 3 3 5 5 3 3 3 3 3 3 4 4 5 5 5 4 4 3 3 3 3 4 5 5 5 5 5 5 5 5 5 5 4 4 4 4 4 4 4 5 5 5 5 5
Wind_Direction
304 326 89 63 56 56 67 45 108 70 61 58 72 81 82 65 81 124 177 134 122 119 106 95 90 90 88 89 87 86 86 84 85 88 90 88 85 82 79 78 78 86 93 88 82 79 78 77 76
337 20 71 61 79 81 66 128 94 89 133 118 80 75 74 71 80 108 120 131 119 112 105 100 94 93 90 89 87 85 84 84 86 88 89 88 86 83 79 78 77 87 95 92 85 81 78 78 76
321 59 78 67 81 131 145 168 126 101 102 95 79 58 69 92 104 122 141 131 113 101 97 103 99 96 92 91 89 86 83 84 86 90 91 90 87 84 83 82 80 85 90 88 85 81 79 78 76
63 46 57 72 80 123 155 173 133 108 75 68 97 74 63 60 120 131 132 124 115 105 102 103 103 101 94 91 91 88 85 84 87 91 90 89 87 87 86 86 84 85 86 86 85 83 80 78 75
70 71 63 65 80 81 121 137 115 99 82 78 94 95 71 41 106 121 128 124 120 114 106 106 104 103 99 95 94 93 89 88 88 88 88 88 88 90 89 88 88 87 85 85 84 82 79 76 74
57 66 81 84 98 98 87 105 101 93 100 99 95 103 94 106 113 125 129 125 125 122 108 107 109 106 101 97 96 97 93 91 90 89 90 92 92 90 90 89 89 87 86 85 83 80 77 74 71
101 88 112 132 122 103 126 106 101 110 101 93 109 103 120 133 135 132 128 123 121 118 110 99 106 108 106 103 101 101 99 96 93 92 92 94 93 91 91 90 89 89 86 83 82 80 77 75 73
122 96 70 95 123 121 136 110 111 106 100 98 100 126 155 182 146 127 123 122 121 123 119 110 105 106 108 111 107 104 104 99 95 91 90 89 88 87 88 89 89 89 85 81 80 80 77 74 73
89 78 91 169 147 147 123 104 85 75 91 70 77 129 154 151 135 122 119 117 128 133 141 129 121 114 118 122 117 111 108 105 100 95 96 91 86 84 87 89 88 85 82 79 78 78 75 74 70
85 108 187 169 153 145 118 115 123 95 89 84 81 94 122 133 138 139 143 145 149 154 161 154 141 142 140 130 117 109 101 99 102 103 106 102 96 89 86 88 85 79 74 70 72 72 72 73 69
117 148 139 105 129 125 109 101 98 117 108 147 145 144 140 135 140 148 152 150 156 158 157 161 160 156 148 130 128 119 107 100 102 117 120 111 96 83 74 71 63 59 59 60 64 67 73 76 73
102 127 132 127 113 113 121 111 87 106 154 155 150 150 148 149 156 159 157 151 143 141 147 156 157 145 144 134 130 125 116 112 116 128 129 121 107 94 86 71 58 59 65 67 68 75 78 78 76
107 117 108 119 118 122 111 106 111 113 134 138 141 143 153 159 163 163 159 154 146 144 147 149 139 138 129 118 118 107 110 123 129 125 127 127 118 109 103 83 78 74 78 82 83 81 77 74 72
151 133 127 134 128 128 117 121 112 151 144 141 146 154 163 167 167 158 154 155 153 156 154 145 132 132 120 119 112 106 109 114 113 113 125 127 126 119 104 90 80 77 82 88 90 86 83 77 76
110 101 78 162 150 153 113 85 157 167 152 152 160 167 167 174 169 165 171 171 167 163 156 153 145 127 125 122 112 102 102 102 98 101 115 126 125 117 108 95 83 81 89 92 88 80 76 75 72
78 75 271 255 177 175 133 201 218 175 156 164 174 178 176 182 182 178 172 169 171 162 155 164 148 134 131 127 111 99 95 94 93 94 102 113 118 116 109 98 88 91 94 92 88 82 77 70 68
40 183 231 272 207 168 150 195 210 187 168 176 182 183 180 183 187 183 175 174 173 169 163 163 149 147 145 133 114 97 89 89 100 98 99 110 114 117 113 107 103 100 92 89 97 86 94 88 79
221 213 227 231 223 153 167 198 203 192 185 187 187 186 182 185 194 182 177 174 168 167 160 158 150 147 139 125 103 85 71 73 89 97 101 108 112 117 115 110 104 101 90 82 89 93 80 90 92
197 195 231 237 217 162 188 202 209 197 190 191 191 190 191 196 194 177 173 167 160 161 153 156 155 156 144 134 129 126 129 121 96 100 112 117 118 121 117 108 101 98 102 108 105 101 89 74 90
158 175 256 271 227 168 184 228 220 200 197 193 192 191 190 187 183 181 175 173 171 170 164 162 167 163 159 158 160 161 153 143 132 104 103 121 123 125 123 117 115 112 108 101 100 106 101 94 90
229 201 217 220 341 29 95 309 255 244 209 197 196 193 190 186 186 184 175 174 171 172 175 174 173 164 165 155 136 114 86 71 67 86 114 113 128 131 133 132 127 123 125 130 132 130 124 146 268
239 236 203 188 69 287 188 265 272 229 212 208 204 198 195 192 186 182 176 175 180 183 177 170 170 165 164 156 151 151 151 158 187 184 177 153 147 144 145 148 143 141 140 144 157 148 140 140 166
220 225 205 208 180 299 290 186 284 222 222 227 209 198 198 190 182 181 183 182 183 178 172 171 168 166 164 163 162 158 155 171 173 163 158 160 163 162 157 157 154 152 155 161 160 146 148 148 155
173 42 24 47 73 294 251 183 275 242 225 217 207 198 192 185 181 181 183 171 169 167 164 161 162 172 171 166 164 162 164 166 159 162 170 181 189 197 180 168 166 167 165 170 173 171 169 171 157
79 79 20 352 4 257 270 182 255 265 243 197 189 193 191 181 177 178 176 171 174 172 169 167 166 174 173 169 173 175 175 174 176 178 182 182 189 203 207 188 180 179 183 183 173 171 182 174 169
174 142 160 203 233 280 329 250 268 299 357 139 157 160 165 173 179 181 184 182 183 182 176 175 180 180 175 173 183 184 178 178 186 186 185 192 199 204 201 190 189 192 189 184 170 175 183 173 185
152 180 179 155 226 287 304 312 322 3 44 72 100 127 158 174 181 186 187 184 184 184 184 183 183 182 187 187 183 186 185 181 186 187 184 193 199 201 192 186 185 189 189 182 170 178 194 182 190
170 161 100 126 179 256 292 284 259 268 252 106 124 151 175 167 160 165 171 173 174 177 183 184 182 183 188 185 185 187 190 188 187 178 185 193 196 191 185 190 189 186 186 183 176 184 196 177 190
357 117 122 136 159 166 240 276 247 206 193 171 181 176 176 175 178 178 177 173 169 163 161 166 178 179 185 187 188 191 193 191 184 184 194 196 191 186 187 191 191 192 193 189 184 193 185 182 193
186 184 147 154 225 175 179 265 289 204 190 164 178 189 184 177 182 176 169 163 158 161 162 165 165 178 196 191 186 191 188 184 187 194 199 190 190 193 192 184 186 193 198 191 188 195 190 186 195
Height
1516 1516 1516 1517 1520 1531 1535 1530 1524 1523 1523 1524 1523 1524 1528 1532 1536 1543 1540 1538 1538 1537 1536 1536 1535 1534 1533 1532 1531 1531 1530 1530 1529 1529 1529 1529 1529 1528 1528 1526 1524 1521 1523 1525 1526 1527 1527 1527 1527
1516 1516 1517 1518 1528 1542 1538 1528 1525 1523 1524 1524 1525 1527 1530 1534 1535 1537 1537 1538 1538 1538 1537 1537 1536 1535 1534 1533 1533 1532 1531 1531 1530 1530 1530 1530 1530 1529 1528 1527 1523 1519 1521 1525 1527 1528 1528 1528 1528
1516 1516 1518 1521 1531 1538 1536 1527 1524 1523 1523 1524 1527 1530 1533 1536 1537 1537 1538 1539 1539 1539 1538 1538 1537 1536 1535 1535 1534 1533 1533 1532 1532 1531 1531 1531 1531 1530 1530 1528 1526 1524 1525 1528 1529 1530 1530 1530 1530
1517 1518 1519 1527 1532 1529 1527 1525 1522 1523 1525 1525 1528 1533 1535 1538 1538 1538 1539 1540 1540 1539 1539 1539 1538 1537 1536 1536 1535 1535 1534 1534 1533 1533 1532 1532 1532 1532 1531 1531 1530 1529 1529 1530 1531 1531 1531 1531 1531
1517 1518 1525 1533 1531 1527 1524 1523 1523 1524 1526 1528 1529 1534 1537 1539 1539 1539 1540 1541 1541 1540 1540 1540 1539 1538 1538 1537 1537 1536 1536 1535 1535 1535 1534 1534 1533 1533 1533 1533 1533 1533 1532 1533 1533 1533 1533 1533 1533
1518 1520 1533 1538 1532 1527 1525 1524 1524 1526 1528 1530 1531 1535 1539 1540 1540 1541 1541 1542 1542 1541 1541 1541 1540 1540 1539 1539 1538 1538 1538 1537 1537 1536 1536 1536 1535 1535 1535 1535 1535 1535 1535 1535 1535 1535 1535 1535 1535
1519 1525 1533 1533 1533 1529 1526 1525 1526 1527 1529 1531 1532 1536 1539 1541 1541 1542 1542 1543 1543 1543 1542 1542 1541 1541 1541 1540 1540 1540 1539 1539 1539 1538 1538 1537 1537 1537 1537 1537 1537 1537 1537 1537 1537 1537 1537 1537 1537
1518 1524 1531 1533 1533 1531 1526 1526 1527 1527 1529 1532 1532 1535 1539 1541 1542 1542 1543 1544 1544 1544 1544 1543 1543 1542 1542 1542 1542 1541 1541 1541 1541 1540 1540 1539 1539 1539 1538 1539 1539 1539 1539 1539 1539 1539 1539 1539 1538
1519 1529 1535 1531 1531 1529 1526 1526 1528 1529 1530 1531 1533 1534 1537 1540 1542 1543 1543 1544 1544 1544 1544 1544 1544 1544 1543 1543 1543 1543 1543 1543 1542 1542 1542 1542 1541 1541 1540 1541 1541 1541 1541 1541 1541 1540 1540 1540 1540
1520 1531 1529 1524 1525 1526 1526 1526 1528 1531 1531 1533 1534 1536 1538 1539 1541 1542 1543 1543 1544 1545 1545 1545 1545 1545 1545 1545 1545 1544 1544 1544 1544 1544 1543 1543 1543 1543 1543 1542 1543 1543 1543 1543 1542 1542 1542 1542 1541
1520 1526 1524 1524 1523 1525 1526 1527 1528 1530 1533 1534 1534 1536 1538 1539 1541 1542 1543 1544 1544 1545 1545 1546 1546 1546 1546 1546 1546 1546 1545 1545 1545 1545 1545 1545 1545 1544 1544 1544 1544 1544 1545 1544 1544 1544 1544 1543 1543
1521 1522 1523 1524 1524 1525 1526 1528 1530 1530 1533 1534 1535 1536 1538 1539 1541 1542 1543 1544 1544 1545 1545 1546 1546 1547 1547 1547 1547 1547 1546 1546 1546 1546 1546 1546 1546 1546 1546 1546 1546 1546 1546 1546 1546 1545 1545 1545 1545
1522 1523 1523 1524 1525 1526 1527 1528 1530 1532 1533 1534 1535 1537 1538 1539 1540 1542 1543 1544 1544 1545 1545 1546 1547 1547 1547 1548 1548 1548 1547 1547 1547 1548 1548 1548 1547 1547 1547 1547 1547 1547 1547 1547 1547 1547 1547 1546 1546
1522 1523 1524 1525 1525 1526 1528 1530 1531 1533 1534 1535 1536 1537 1538 1539 1540 1541 1542 1543 1544 1545 1546 1546 1547 1547 1548 1548 1548 1549 1548 1548 1548 1548 1549 1549 1549 1548 1548 1548 1548 1548 1548 1548 1548 1548 1548 1548 1547
1522 1525 1526 1525 1525 1527 1528 1533 1532 1532 1534 1535 1536 1537 1538 1539 1540 1541 1541 1543 1544 1544 1545 1546 1547 1548 1548 1548 1549 1549 1549 1549 1549 1549 1549 1549 1550 1549 1549 1549 1549 1549 1549 1549 1549 1549 1549 1549 1549
1524 1529 1534 1527 1525 1526 1531 1539 1532 1532 1533 1534 1535 1536 1537 1538 1539 1540 1541 1542 1543 1544 1545 1546 1547 1548 1548 1548 1549 1549 1549 1550 1550 1550 1550 1550 1550 1550 1550 1550 1550 1550 1550 1550 1550 1550 1550 1550 1550
1531 1537 1536 1530 1524 1525 1529 1535 1530 1531 1532 1533 1533 1534 1535 1537 1538 1539 1540 1541 1542 1544 1545 1546 1547 1547 1548 1548 1549 1550 1550 1550 1550 1551 1551 1551 1551 1551 1551 1551 1551 1551 1551 1551 1551 1551 1551 1551 1551
1537 1536 1534 1532 1525 1525 1529 1531 1528 1529 1530 1530 1532 1533 1534 1535 1536 1538 1539 1541 1542 1543 1544 1545 1546 1547 1547 1548 1549 1550 1550 1550 1551 1551 1551 1551 1551 1551 1551 1551 1551 1551 1551 1551 1551 1552 1552 1552 1552
1527 1531 1533 1529 1522 1525 1528 1529 1527 1527 1528 1529 1530 1531 1532 1533 1535 1537 1538 1540 1541 1542 1543 1544 1545 1546 1546 1547 1548 1549 1549 1550 1551 1551 1551 1551 1551 1551 1551 1551 1551 1552 1552 1552 1552 1552 1552 1552 1552
1526 1531 1531 1527 1522 1524 1528 1529 1525 1525 1525 1526 1527 1528 1530 1532 1534 1536 1537 1538 1540 1541 1542 1543 1544 1545 1545 1546 1547 1548 1549 1550 1550 1550 1551 1551 1551 1551 1552 1552 1552 1552 1552 1552 1552 1552 1552 1552 1553
1526 1529 1529 1528 1524 1523 1528 1532 1528 1524 1524 1524 1525 1526 1527 1529 1531 1533 1534 1536 1537 1539 1540 1541 1542 1543 1544 1545 1546 1547 1548 1549 1549 1550 1550 1551 1551 1551 1552 1552 1552 1552 1552 1552 1552 1552 1552 1552 1553
1529 1522 1523 1525 1531 1537 1532 1546 1532 1525 1524 1523 1523 1524 1525 1527 1528 1530 1532 1534 1535 1536 1538 1540 1541 1542 1543 1544 1545 1545 1546 1547 1548 1549 1549 1550 1551 1551 1551 1552 1552 1552 1552 1552 1552 1552 1553 1553 1553
1522 1518 1520 1523 1529 1537 1534 1542 1536 1525 1526 1522 1520 1521 1522 1524 1526 1527 1529 1531 1533 1535 1536 1538 1539 1540 1541 1542 1543 1544 1545 1546 1547 1548 1549 1549 1550 1550 1551 1551 1551 1552 1552 1552 1552 1552 1553 1553 1553
1516 1520 1523 1528 1535 1546 1536 1541 1539 1528 1522 1518 1518 1519 1520 1522 1523 1526 1528 1529 1531 1533 1534 1536 1537 1538 1539 1541 1542 1542 1544 1545 1546 1546 1547 1548 1548 1549 1549 1550 1550 1551 1551 1552 1552 1552 1552 1552 1552
1520 1534 1548 1549 1553 1549 1532 1535 1535 1520 1515 1514 1515 1516 1518 1520 1522 1523 1525 1527 1529 1530 1532 1533 1535 1536 1537 1539 1540 1541 1542 1543 1544 1545 1546 1546 1547 1547 1548 1549 1549 1550 1550 1551 1551 1551 1551 1552 1552
1523 1531 1549 1556 1556 1548 1534 1537 1529 1516 1513 1513 1513 1515 1517 1518 1520 1521 1523 1525 1526 1528 1530 1531 1532 1534 1535 1536 1538 1539 1540 1541 1542 1543 1544 1545 1545 1546 1547 1547 1548 1548 1549 1549 1550 1550 1550 1550 1550
1523 1529 1530 1542 1543 1548 1543 1533 1524 1516 1515 1515 1515 1516 1516 1517 1518 1520 1521 1523 1524 1526 1527 1529 1530 1532 1533 1534 1536 1537 1538 1539 1540 1541 1542 1543 1543 1544 1545 1545 1546 1547 1547 1548 1549 1549 1549 1549 1549
1517 1522 1534 1541 1549 1555 1546 1540 1536 1524 1520 1517 1516 1516 1517 1517 1518 1519 1521 1522 1523 1525 1526 1528 1529 1530 1531 1532 1534 1535 1536 1537 1538 1539 1540 1540 1541 1542 1543 1544 1544 1545 1546 1546 1547 1547 1547 1548 1548
1521 1523 1529 1538 1542 1551 1554 1546 1522 1520 1518 1518 1517 1516 1516 1516 1517 1518 1520 1521 1522 1524 1525 1526 1527 1528 1529 1530 1531 1533 1533 1535 1536 1536 1537 1538 1539 1540 1541 1542 1542 1543 1544 1544 1545 1545 1546 1546 1546
1517 1520 1527 1539 1542 1543 1549 1544 1517 1517 1516 1516 1516 1516 1516 1516 1517 1518 1519 1520 1521 1522 1524 1525 1526 1527 1527 1528 1529 1530 1531 1532 1533 1534 1535 1536 1536 1537 1539 1539 1540 1541 1541 1542 1543 1543 1544 1544 1544